Location: Hertford
(51.8000°N, 0.0667°W)
Time: 12:48:11
(UTC+00:00)

Cosmos 1634 Rocket - Pass Details

Date: 18 September 2020
Orbit: 961 x 991 km, 82.9° (Epoch: 23 October)

Event Time Altitude Azimuth Distance (km) Brightness Sun altitude
Exits shadow 21:19:02 26° 213° (SSW) 1,804 5.2 -27.5°
Maximum altitude 21:22:34 60° 284° (WNW) 1,095 4.4 -27.9°
Drops below altitude 10° 21:28:43 10° 5° (N) 2,720 6.8 -28.6°
Sets 21:31:18 0° 9° (N) 3,675 7.5 -28.9°
